Theta_e
336 334 328 318 301 294 290 297 302 304 306 306 312 317 316 315 312 306 337 342 347 348 350 351 355 355 354 350 347 345 348 351 353 353 354 353 353 352 349 347 345 343 342 343 344 345 344 344 344
333 329 319 310 295 287 290 297 300 308 309 320 321 320 317 318 330 334 338 346 348 349 350 350 354 355 353 351 348 346 348 349 350 352 352 353 351 349 347 345 344 343 342 342 342 343 344 345 346
331 328 312 301 293 289 288 297 300 310 313 311 317 322 320 323 333 335 344 347 348 347 348 350 354 354 354 352 350 347 346 347 349 350 351 351 348 347 346 344 343 342 343 343 344 345 345 346 344
323 318 313 297 290 293 293 298 302 310 315 315 321 319 326 333 332 340 346 347 345 346 347 351 353 354 353 352 352 349 345 344 345 347 348 349 348 345 344 342 342 342 344 344 345 346 346 344 345
320 312 300 294 292 294 297 304 305 309 312 313 321 319 324 333 341 344 346 346 344 345 348 349 353 353 352 352 352 351 347 344 342 344 344 345 344 343 343 342 342 344 344 344 345 346 345 342 343
310 310 296 292 292 296 299 304 303 308 311 313 320 320 325 337 341 343 345 344 346 346 348 348 350 351 352 351 351 352 350 345 342 342 343 344 343 343 342 342 342 343 344 344 345 345 343 340 340
306 303 295 293 293 295 299 305 302 309 311 313 323 318 328 334 340 342 342 344 346 347 347 347 347 348 348 348 350 351 350 348 345 343 343 344 343 343 342 342 342 343 343 343 343 343 340 338 338
307 305 295 293 293 294 301 306 310 311 309 318 323 318 322 331 337 340 342 342 343 343 345 344 345 345 343 343 346 347 348 347 346 343 341 339 339 341 343 342 343 342 342 342 342 341 339 337 335
313 300 292 294 296 298 302 304 310 315 315 320 321 325 331 337 337 337 337 340 342 343 344 345 344 343 340 340 341 344 344 345 343 341 337 335 333 334 335 336 340 342 341 340 339 338 336 336 332
304 298 296 304 305 300 303 306 310 312 316 318 325 331 334 335 332 334 332 334 336 338 341 343 342 341 339 341 337 337 341 342 340 337 335 335 332 332 333 333 337 341 340 340 339 338 338 333 323
305 298 305 306 310 310 303 305 309 311 308 318 323 328 331 332 330 332 333 336 336 339 341 341 341 340 337 337 334 335 337 338 338 335 334 333 333 331 330 329 330 329 331 329 332 329 328 323 323
297 306 307 308 310 308 306 305 304 306 308 317 328 331 331 331 328 329 329 329 333 338 340 341 341 338 336 335 334 335 335 334 338 336 334 332 329 329 329 327 327 326 326 323 324 324 323 323 322
295 300 306 308 309 309 309 305 303 304 320 326 329 330 330 331 330 324 327 328 336 337 340 340 340 338 335 333 331 333 333 334 335 336 335 333 330 328 328 327 326 325 324 323 322 322 322 322 322
300 303 302 306 306 308 305 305 304 304 318 324 325 325 326 328 329 329 330 328 335 337 340 340 339 339 336 333 330 330 332 333 334 334 337 334 331 330 329 327 326 325 324 324 323 323 322 321 317
303 295 299 302 305 304 307 301 301 306 309 318 322 322 324 326 328 330 332 333 333 337 339 339 339 339 336 334 333 331 331 333 332 333 333 334 331 329 329 327 326 326 325 324 323 321 321 319 320
297 294 289 300 303 304 304 295 303 306 304 304 310 310 319 325 329 329 330 331 336 338 339 340 340 339 337 335 334 334 332 332 332 332 332 330 330 329 326 325 324 324 322 321 321 322 322 321 322
294 288 288 293 303 301 301 297 302 306 304 301 302 305 314 319 321 328 330 331 332 335 336 337 338 338 337 335 334 334 333 331 332 331 330 329 329 329 327 326 326 325 323 322 323 323 322 321 322
285 288 291 290 298 299 296 297 302 304 304 301 300 301 303 310 318 323 328 330 332 333 334 335 336 338 338 336 335 334 334 332 332 331 331 330 331 330 328 327 327 328 326 324 324 324 324 324 324
291 291 290 294 299 297 295 296 300 304 302 300 300 300 302 304 309 313 318 325 328 331 333 332 333 334 336 334 334 333 333 332 332 332 334 334 333 332 330 329 328 328 327 328 328 328 327 327 328
290 289 287 294 299 296 296 295 299 301 302 301 300 299 301 302 304 308 310 315 324 328 330 331 333 332 335 336 335 334 333 333 334 334 334 335 334 334 332 331 330 330 332 332 330 328 327 327 327
287 285 286 290 296 297 294 292 294 299 303 303 303 300 301 303 304 304 307 308 316 323 328 331 333 332 333 332 331 328 330 329 329 330 331 334 335 335 333 332 332 331 332 330 330 329 327 326 327
285 292 291 293 290 284 293 282 286 296 298 301 302 298 300 301 301 303 305 306 307 317 326 329 331 332 333 331 330 329 330 328 331 329 329 330 332 331 331 331 331 332 331 329 330 329 328 327 323
289 294 293 293 288 286 288 282 286 290 292 295 300 297 298 301 302 302 304 307 307 307 319 323 326 328 328 329 329 328 327 328 325 325 326 327 326 328 327 326 326 326 326 325 326 325 325 325 323
294 291 291 291 288 282 284 285 284 286 290 291 295 297 298 301 302 302 303 305 305 302 313 319 323 324 325 325 326 326 326 322 321 320 322 320 319 320 321 322 321 321 320 320 319 318 318 318 316
292 286 281 279 280 276 283 284 285 291 291 292 294 296 296 299 301 301 301 302 302 302 305 313 318 321 322 322 324 324 322 321 320 319 318 316 315 316 317 316 313 313 314 314 314 314 313 315 314
287 287 278 274 275 277 285 281 285 292 292 294 294 294 295 295 296 299 300 303 302 302 303 308 312 315 317 317 320 319 321 318 316 316 316 316 314 313 311 310 309 309 308 308 307 308 310 311 312
287 281 289 283 277 274 281 282 287 291 291 290 291 293 293 293 295 297 299 301 302 301 304 306 308 309 308 308 309 309 311 310 311 310 311 312 312 311 310 308 306 304 303 303 303 304 304 306 309
289 291 283 282 276 273 276 277 280 285 289 290 290 292 292 293 296 298 297 299 300 301 303 304 305 305 304 304 305 306 306 307 306 306 305 305 305 304 301 300 300 300 299 299 299 299 302 303 306
287 284 286 285 283 274 273 276 284 286 288 290 292 292 291 293 294 296 298 298 299 301 302 302 303 303 303 303 302 301 301 301 301 300 299 298 299 299 298 297 297 297 297 297 297 297 299 301 303
292 289 288 282 278 276 273 277 287 287 289 290 291 293 293 294 294 294 297 298 299 300 301 302 302 303 303 302 301 300 299 298 298 298 299 299 298 297 296 296 296 296 296 296 297 297 296 297 297
Wind_Speed
16 5 3 2 3 3 4 8 2 6 5 6 2 4 7 2 5 5 6 9 18 15 15 14 18 17 18 18 16 15 12 11 16 20 21 21 21 21 18 18 17 17 17 17 17 16 15 15 13
6 5 3 2 4 5 5 5 8 8 4 5 5 3 1 2 4 8 10 14 17 15 13 12 18 17 18 18 17 16 14 14 15 17 17 20 21 19 18 18 17 16 16 16 16 15 14 13 11
14 5 4 5 4 12 6 6 6 12 10 2 3 2 1 4 9 9 12 18 16 14 12 12 17 17 18 18 17 16 15 15 15 15 15 16 17 18 18 17 16 15 15 14 14 14 13 13 12
7 5 2 4 7 8 7 5 6 12 7 7 4 1 2 3 3 8 18 16 15 11 11 14 17 16 18 19 17 17 16 16 15 15 15 15 15 17 17 16 15 14 14 13 12 13 12 12 12
4 0 10 5 8 4 4 3 9 15 19 17 2 5 3 5 8 19 18 13 15 10 10 12 18 17 17 18 15 18 17 16 16 15 16 16 17 16 16 14 13 14 14 13 12 11 11 11 12
6 1 8 13 8 5 5 3 6 13 17 19 6 6 3 0 17 15 18 12 12 12 11 11 16 16 16 16 14 18 18 17 16 16 15 16 16 15 15 13 11 12 12 12 11 10 8 9 10
9 5 9 8 10 7 5 8 5 8 15 12 1 4 6 6 9 15 14 13 11 9 9 9 10 12 15 14 12 14 18 16 15 14 15 14 13 14 14 12 11 10 10 10 10 8 6 6 7
4 1 17 6 9 7 6 2 6 3 4 1 3 6 8 9 11 12 12 12 10 7 6 8 8 8 7 7 11 10 15 15 15 14 12 11 10 10 11 9 8 9 8 7 6 5 4 4 5
7 6 13 7 15 7 5 6 3 2 8 3 2 3 12 20 18 14 9 10 11 9 9 9 10 7 6 6 7 9 10 13 13 12 11 9 4 6 6 6 7 6 6 6 4 3 3 3 5
8 3 3 5 2 5 6 6 11 4 4 2 7 12 17 17 20 21 16 10 11 10 9 10 11 8 6 6 6 5 6 6 6 6 6 5 5 5 5 6 7 6 4 4 3 1 0 3 2
6 7 2 4 6 1 5 5 2 13 1 5 13 18 17 15 14 20 19 12 13 11 7 10 11 9 7 6 4 3 3 3 5 7 5 5 4 3 3 2 2 2 3 0 0 2 1 2 2
9 10 3 3 6 5 4 2 6 2 5 5 12 19 13 17 15 17 19 4 9 13 13 11 9 9 6 6 5 5 5 4 4 5 6 4 3 3 3 3 3 3 2 3 2 1 2 3 4
11 15 5 5 9 17 5 6 5 5 3 9 9 10 15 16 12 12 18 24 14 13 12 13 11 9 7 8 6 5 5 5 5 6 5 4 4 4 3 3 3 3 3 3 3 3 2 3 4
7 10 13 7 11 14 7 5 3 5 3 7 6 8 7 11 14 9 15 16 9 9 13 13 13 11 10 7 9 7 6 5 5 5 7 7 5 4 4 4 4 3 3 3 4 3 3 3 3
4 5 8 17 10 8 9 7 6 5 2 4 3 3 6 8 9 13 12 18 26 21 15 16 14 12 10 10 9 7 7 6 5 6 6 7 6 6 6 4 4 4 4 4 3 3 2 3 2
4 6 4 12 11 7 8 3 4 6 7 6 4 1 1 6 7 6 7 6 12 13 16 15 14 15 14 10 8 7 7 6 6 5 6 8 8 7 6 5 5 4 4 3 3 3 2 3 3
1 4 7 8 9 7 10 3 7 6 7 6 5 5 4 4 4 5 8 8 7 12 13 13 14 13 11 5 4 4 5 6 6 5 6 8 9 9 7 6 5 5 4 4 3 3 2 2 2
4 6 5 6 3 6 8 8 10 6 5 5 5 4 5 5 10 7 6 7 8 7 8 9 8 12 12 8 5 2 3 3 4 6 6 8 7 8 8 5 5 5 4 4 3 4 3 3 3
5 6 10 8 9 3 4 5 16 9 8 8 8 6 6 8 6 6 5 4 5 6 7 9 9 9 6 4 5 3 4 3 2 4 8 9 7 8 7 4 5 5 5 4 4 2 4 3 3
5 6 3 6 14 5 10 8 10 12 10 6 6 9 8 5 6 6 6 7 8 7 8 7 8 7 9 6 4 4 4 2 3 3 5 7 7 7 6 6 5 6 5 7 6 4 2 2 3
2 2 1 5 10 2 8 4 7 9 14 10 10 8 7 12 11 8 8 9 7 8 10 11 12 10 8 6 4 2 3 3 2 3 2 4 8 7 7 5 4 4 0 2 4 5 7 4 3
1 3 5 8 7 3 3 4 4 10 12 14 15 10 10 9 7 7 7 7 8 11 8 7 7 10 8 6 5 6 6 5 6 4 4 4 5 6 7 9 8 7 4 4 3 3 2 2 3
3 4 5 6 4 5 2 1 7 1 11 17 16 11 10 10 10 10 9 9 10 7 6 3 3 3 5 6 7 6 5 4 2 1 5 6 3 4 3 2 2 2 1 2 3 2 2 2 2
1 5 7 6 3 3 6 5 5 6 9 6 8 11 11 11 10 9 8 6 5 5 5 5 6 5 6 6 6 7 7 5 3 3 3 2 2 2 3 2 2 3 4 3 1 3 3 4 2
4 5 2 1 3 4 3 5 8 5 6 7 9 11 10 13 11 9 8 7 7 8 8 6 6 6 6 6 6 6 6 6 7 6 4 7 5 2 1 2 3 2 4 4 2 2 3 4 1
4 7 5 7 4 2 2 7 8 6 5 7 8 9 8 9 8 8 9 8 8 8 8 8 8 7 7 5 5 4 3 3 3 4 4 5 4 5 7 6 6 4 4 4 4 3 4 4 4
4 4 6 4 1 3 4 6 9 9 7 3 6 5 4 3 7 9 9 9 8 7 9 9 7 5 6 6 5 3 3 5 5 5 5 4 3 3 5 6 7 4 3 4 4 1 2 4 4
4 6 4 0 4 4 3 4 6 3 6 2 4 6 3 3 6 4 3 6 4 4 5 7 6 7 6 7 6 5 6 5 5 6 7 7 5 4 6 6 7 5 4 3 2 2 2 4 3
3 3 2 4 3 4 2 6 6 7 5 8 8 4 1 4 4 4 3 0 3 4 5 6 6 7 6 6 5 6 6 6 6 6 6 8 6 5 5 5 6 6 4 2 2 2 3 4 4
2 2 4 3 5 1 3 7 4 5 7 7 5 3 1 2 3 2 3 3 4 4 4 6 6 6 6 6 6 6 6 6 6 6 5 4 8 8 6 4 4 4 3 2 2 1 3 3 4
Wind_Direction
242 214 117 78 163 80 221 231 186 147 174 218 126 145 184 98 157 198 144 131 134 138 144 145 143 138 131 126 126 123 123 108 107 116 118 121 119 113 115 113 112 111 111 111 110 108 103 97 94
235 136 66 198 187 165 236 236 181 155 165 140 75 68 10 114 84 124 118 143 138 137 140 143 144 141 132 131 129 127 124 113 111 108 110 117 114 116 116 114 114 113 112 111 112 109 104 97 89
225 191 139 180 176 206 197 209 170 204 143 145 73 63 245 105 127 130 123 140 135 137 139 147 148 142 142 135 133 131 129 121 116 116 118 119 121 117 120 120 119 117 115 116 117 112 105 87 76
214 174 238 182 193 237 184 206 166 160 339 345 114 127 46 37 150 136 138 136 130 136 139 149 142 134 136 135 142 136 130 128 124 120 122 126 127 122 125 125 124 124 122 121 118 113 103 90 87
194 320 192 159 211 220 218 253 150 162 156 257 140 171 91 346 124 136 135 138 136 130 135 144 139 135 132 139 146 140 134 131 130 130 129 130 125 128 126 127 130 129 128 125 123 118 104 94 89
193 251 187 173 191 220 211 211 145 162 156 200 196 152 89 21 133 138 133 139 136 135 144 149 138 138 135 140 146 145 138 136 134 135 134 134 131 132 130 130 132 131 130 125 122 120 107 98 98
223 188 190 184 174 190 198 146 135 141 173 191 212 77 117 137 133 129 126 133 132 136 134 133 133 137 136 144 148 144 141 140 137 136 136 134 133 135 136 135 132 129 127 124 124 119 104 89 86
219 52 188 188 161 178 194 80 129 161 133 46 60 142 161 167 131 113 122 129 133 129 116 123 129 133 126 141 146 145 147 143 140 136 129 128 132 138 137 135 133 132 125 118 115 112 102 78 58
251 243 190 179 167 166 136 141 77 1 107 64 4 187 140 144 131 113 119 141 148 151 141 130 144 138 126 134 148 145 143 145 138 133 133 125 124 125 127 137 136 133 136 134 134 117 77 38 18
244 223 168 359 26 143 142 134 123 115 101 81 95 97 125 149 142 151 142 161 167 163 151 147 156 154 143 152 139 142 141 138 137 137 139 130 134 141 145 147 151 154 161 162 179 176 36 5 346
288 202 270 24 334 138 125 96 55 125 94 190 151 140 152 150 163 152 126 172 176 166 156 160 164 164 163 147 142 148 143 144 145 146 146 141 136 141 141 142 148 146 173 203 289 332 336 290 289
292 47 293 27 349 53 74 63 80 10 161 159 149 149 145 164 180 147 127 188 203 168 167 165 175 176 174 157 160 162 157 161 158 159 154 145 146 158 163 170 176 180 178 192 220 215 266 276 281
282 280 18 35 31 39 65 52 111 12 44 105 130 150 152 157 172 170 177 180 173 186 171 171 174 186 177 171 163 167 174 175 166 164 170 154 162 171 164 193 191 191 182 193 202 226 243 268 276
270 9 11 22 25 56 29 28 93 357 351 99 148 144 145 156 154 154 183 169 169 200 181 178 184 190 181 184 175 174 179 177 168 173 183 178 175 170 174 189 206 212 204 203 204 212 235 255 255
145 327 0 20 6 42 339 40 55 330 46 112 186 176 150 165 162 166 178 174 170 201 194 180 183 193 194 189 181 172 180 173 173 184 184 188 184 177 177 187 202 209 205 222 229 241 226 266 265
137 88 41 4 357 20 17 113 54 22 66 43 5 287 209 152 179 159 184 178 170 182 182 186 186 189 191 196 186 177 175 177 184 180 180 188 194 184 179 186 208 196 186 192 195 202 209 216 228
141 105 98 338 352 32 30 24 344 12 34 20 17 323 234 252 251 191 185 191 176 177 181 185 188 182 189 200 202 171 182 186 198 177 181 194 191 184 180 191 193 172 173 180 193 199 187 218 261
143 100 130 139 215 104 350 336 310 321 357 317 316 282 273 231 240 219 196 174 193 195 176 182 190 191 179 176 178 177 161 194 192 197 186 189 187 184 179 181 177 167 166 183 191 202 202 208 233
121 117 141 165 157 123 173 274 275 310 320 307 304 297 232 238 244 245 202 236 235 201 179 176 179 190 172 160 158 171 187 157 189 198 191 199 191 186 175 176 179 175 179 186 181 190 218 238 181
51 122 110 97 158 203 166 233 234 268 267 244 271 279 254 236 250 247 231 201 193 209 212 188 192 184 195 182 181 164 157 161 167 214 201 187 178 176 183 175 183 188 174 174 176 174 193 210 175
52 216 219 124 155 242 155 236 210 216 245 257 251 253 257 234 228 221 217 216 217 198 201 205 199 197 201 187 121 114 70 83 137 208 195 181 165 154 152 166 188 194 145 221 162 186 179 214 156
191 268 178 128 137 213 275 271 258 214 229 232 239 244 237 232 227 236 227 221 204 224 214 207 199 198 201 164 175 193 211 206 220 181 190 208 185 183 185 186 189 196 188 214 198 238 216 225 188
232 19 140 156 146 118 251 182 266 90 222 235 232 236 235 234 215 221 224 216 217 217 203 190 195 178 176 185 198 198 197 220 216 182 177 175 182 159 174 229 168 136 60 33 356 322 259 252 155
114 69 45 53 40 235 196 201 259 199 226 238 226 233 230 234 239 224 216 229 235 186 170 180 178 204 184 175 194 196 213 212 197 183 176 110 40 351 17 16 23 91 106 92 107 290 276 248 189
89 64 78 292 221 224 223 173 249 202 234 233 223 215 236 239 223 219 217 206 209 189 186 193 205 203 183 186 184 187 211 212 207 207 181 143 133 141 108 69 122 109 108 107 93 337 298 287 244
167 162 157 193 200 205 115 219 247 245 260 217 235 265 269 241 209 205 215 208 209 217 194 183 192 194 174 186 193 170 161 182 185 180 150 145 163 155 135 121 78 304 82 113 83 55 318 314 313
183 171 160 115 355 59 208 283 302 260 261 195 208 186 243 183 186 209 219 213 204 196 210 191 177 168 163 167 157 164 151 150 143 119 102 112 125 154 135 130 134 113 60 38 63 64 329 327 309
176 172 130 38 191 222 234 266 232 265 251 222 185 196 203 71 53 23 252 238 248 197 147 134 150 166 168 164 167 160 160 153 142 135 130 123 130 125 121 132 121 119 94 70 68 42 311 291 275
168 183 112 132 143 178 283 258 222 239 224 200 210 213 59 56 50 54 49 191 149 122 139 140 163 160 163 156 144 138 140 140 131 129 134 129 114 105 113 131 129 133 139 91 12 337 303 268 275
321 226 181 143 203 319 143 275 350 327 266 183 157 165 156 81 64 30 64 86 146 157 146 167 163 165 158 145 136 129 114 106 110 114 106 127 132 132 119 74 90 79 50 70 60 332 319 299 304